This is the latest recevied weather packets stored in our database for station/object KN6DHD. If no packets are shown the sender has not sent any weather packets the latest 10 day(s).
| Time | Temp. | Humidity | Pressure | Rain* | Wind** | Luminosity | Snow |
|---|---|---|---|---|---|---|---|
| 1778001814 | 12.78° C | 99% | 1016.5 hPa | 0 mm | - | 147 W/m² | - |
| 1778001514 | 13.33° C | 99% | 1016.1 hPa | 0 mm | - | 140 W/m² | - |
| 1778001211 | 13.33° C | 99% | 1016.4 hPa | 0 mm | - | 139 W/m² | - |
| 1778000907 | 12.78° C | 99% | 1016.2 hPa | 0 mm | - | 152 W/m² | - |
| 1778000604 | 12.78° C | 99% | 1016.3 hPa | 0 mm | - | 133 W/m² | - |
| 1778000300 | 13.33° C | 99% | 1016 hPa | 0 mm | - | 139 W/m² | - |
| 1777999995 | 13.33° C | 99% | 1016.2 hPa | 0 mm | - | 153 W/m² | - |
| 1777999691 | 12.78° C | 99% | 1016.3 hPa | 0 mm | - | 134 W/m² | - |
| 1777999389 | 13.33° C | 99% | 1016 hPa | 0 mm | - | 127 W/m² | - |
| 1777999087 | 12.78° C | 99% | 1016.2 hPa | 0 mm | - | 180 W/m² | - |
| 1777998785 | 12.78° C | 99% | 1016.1 hPa | 0 mm | - | 160 W/m² | - |
| 1777998483 | 12.78° C | 99% | 1016.3 hPa | 0 mm | - | 147 W/m² | - |
| 1777998179 | 12.78° C | 99% | 1015.9 hPa | 0 mm | - | 163 W/m² | - |
| 1777997876 | 12.78° C | 99% | 1016.3 hPa | 0 mm | - | 138 W/m² | - |
| 1777997573 | 12.78° C | 99% | 1016 hPa | 0 mm | - | 117 W/m² | - |
| 1777997270 | 12.78° C | 99% | 1016.1 hPa | 0 mm | - | 112 W/m² | - |
| 1777996968 | 12.78° C | 99% | 1016.1 hPa | 0 mm | - | 100 W/m² | - |
| 1777996664 | 12.78° C | 99% | 1016 hPa | 0 mm | - | 90 W/m² | - |
| 1777996361 | 12.22° C | 99% | 1015.7 hPa | 0 mm | - | 68 W/m² | - |
| 1777996057 | 12.22° C | 99% | 1016.1 hPa | 0 mm | - | 46 W/m² | - |
| 1777995753 | 12.22° C | 99% | 1016.1 hPa | 0 mm | - | 49 W/m² | - |
| 1777995450 | 12.22° C | 99% | 1016 hPa | 0 mm | - | 44 W/m² | - |
| 1777995147 | 12.22° C | 99% | 1015.9 hPa | 0 mm | - | 36 W/m² | - |
| 1777994844 | 12.22° C | 99% | 1016.1 hPa | 0 mm | - | 34 W/m² | - |
| 1777994541 | 12.22° C | 99% | 1015.8 hPa | 0 mm | - | 32 W/m² | - |
* Rain latest hour (hover to see other rain measurements)
** Current wind speed in m/s (hover to see current wind gust speed)